Weather History for Sierra Vista, AZ

Change the Weather History Date:

Friday, February 8, 2013

  Actual Average Record
Temperature  
Mean Temperature 52 °F -  
Max Temperature 62 °F 59 °F 71 °F (1999)
Min Temperature 42 °F 37 °F 26 °F (1986)
Degree Days  
Heating Degree Days 13    
Growing Degree Days 2 (Base 50)    
Moisture  
Dew Point 17 °F    
Average Humidity 27    
Maximum Humidity 49    
Minimum Humidity 9    
Precipitation  
Precipitation 0.00 in - - ()
Sea Level Pressure  
Sea Level Pressure 29.84 in    
Wind  
Wind Speed 12 mph (SSW)    
Max Wind Speed 31 mph    
Max Gust Speed 40 mph    
Visibility 10 miles    
Events      
Averages and records for this station are not official NWS values.
T = Trace of Precipitation, MM = Missing Value Source: NWS Daily Summary

Daily Weather History Graph

Daily Weather History Graph

Search for Another Location

Airport:

Trip Planner

Search our weather history database for the weather conditions in past years. The results will help you decide how hot, cold, wet, or windy it might be!

Date:

Astronomy

Feb. 08, 2013 Rise Set
Actual Time 7:08 AM MST 6:02 PM MST
Civil Twilight 6:43 AM MST 6:27 PM MST
Nautical Twilight 6:15 AM MST 6:56 PM MST
Astronomical Twilight 5:46 AM MST 7:25 PM MST
Moon 5:37 AM MST (2/8) 4:41 PM MST (2/8)
Length of Visible Light 11h 43m
Length of Day
10h 53m
Waning Crescent, 3% of the Moon is Illuminated
Feb 8
Waning Crescent
Feb 10
New
Feb 17
First Quarter
Feb 25
Full
Mar 4
Last Quarter

Hourly Weather History & Observations

Time (MST) Temp. Windchill Dew Point Humidity Pressure Visibility Wind Dir Wind Speed Gust Speed Precip Events Conditions
12:55 AM 42.8 °F 41.1 °F 24.8 °F 49% 29.97 in 10.0 mi South 3.5 mph - N/A   Scattered Clouds
1:55 AM 48.2 °F - 24.8 °F 40% 29.94 in 10.0 mi SW 4.6 mph - N/A   Scattered Clouds
2:55 AM 44.6 °F 43.1 °F 24.8 °F 46% 29.92 in 10.0 mi SSE 3.5 mph - N/A   Scattered Clouds
3:55 AM 46.4 °F 42.4 °F 23.0 °F 40% 29.91 in 10.0 mi South 8.1 mph - N/A   Scattered Clouds
4:55 AM 46.4 °F 41.5 °F 23.0 °F 40% 29.89 in 10.0 mi South 10.4 mph - N/A   Scattered Clouds
5:55 AM 46.4 °F 42.4 °F 23.0 °F 40% 29.91 in 10.0 mi SSE 8.1 mph - N/A   Mostly Cloudy
6:55 AM 42.8 °F 39.3 °F 21.2 °F 42% 29.92 in 10.0 mi ESE 5.8 mph - N/A   Mostly Cloudy
7:55 AM 44.6 °F 40.2 °F 21.2 °F 39% 29.92 in 10.0 mi SE 8.1 mph - N/A   Mostly Cloudy
8:55 AM 51.8 °F - 19.4 °F 28% 29.91 in 10.0 mi Variable 4.6 mph - N/A   Mostly Cloudy
9:55 AM 55.4 °F - 17.6 °F 23% 29.89 in 10.0 mi East 8.1 mph - N/A   Mostly Cloudy
10:55 AM 57.2 °F - 12.2 °F 17% 29.89 in 10.0 mi SSW 8.1 mph - N/A   Mostly Cloudy
11:55 AM 60.8 °F - 8.6 °F 13% 29.88 in 10.0 mi SSW 17.3 mph 23.0 mph N/A   Mostly Cloudy
12:55 PM 60.8 °F - 10.4 °F 14% 29.84 in 10.0 mi WSW 21.9 mph 29.9 mph N/A   Mostly Cloudy
1:55 PM 62.6 °F - 5.0 °F 10% 29.80 in 10.0 mi WSW 15.0 mph 28.8 mph N/A   Mostly Cloudy
2:55 PM 62.6 °F - 6.8 °F 11% 29.79 in 10.0 mi SW 27.6 mph 38.0 mph N/A   Mostly Cloudy
3:55 PM 60.8 °F - 1.4 °F 9% 29.77 in 10.0 mi SSW 31.1 mph 40.3 mph N/A   Overcast
4:55 PM 60.8 °F - 8.6 °F 13% 29.76 in 10.0 mi SW 23.0 mph 34.5 mph N/A   Mostly Cloudy
5:55 PM 55.4 °F - 14.0 °F 20% 29.78 in 10.0 mi SW 21.9 mph 32.2 mph N/A   Mostly Cloudy
6:55 PM 55.4 °F - 14.0 °F 20% 29.78 in 10.0 mi SSW 27.6 mph 35.7 mph N/A   Mostly Cloudy
7:55 PM 53.6 °F - 15.8 °F 22% 29.78 in 10.0 mi SSW 25.3 mph 35.7 mph N/A   Mostly Cloudy
8:55 PM 51.8 °F - 15.8 °F 24% 29.76 in 10.0 mi SW 31.1 mph 39.1 mph N/A   Mostly Cloudy
9:55 PM 51.8 °F - 19.4 °F 28% 29.75 in 10.0 mi SSW 28.8 mph 39.1 mph N/A   Mostly Cloudy
10:55 PM 50.0 °F - 21.2 °F 32% 29.72 in 10.0 mi SSW 27.6 mph 39.1 mph N/A   Mostly Cloudy
11:56 PM 48.9 °F - 21.9 °F 35% 29.70 in 10.0 mi SSW 26.5 mph 35.7 mph N/A   Clear